Location: Wald
(31.7579°N, 86.6655°W)
Time: 19:52:58
(UTC+00:00)

Cosmos 1271 Rocket - Pass Details

Date: 14 July 2020
Orbit: 498 x 546 km, 81.2° (Epoch: 13 August)

Event Time Altitude Azimuth Distance (km) Brightness Sun altitude
Rises 09:05:30 0° 358° (N) 2,605 6.9 -19.5°
Reaches altitude 10° 09:07:41 10° 4° (N) 1,711 6.0 -19.1°
Maximum altitude 09:11:20 51° 81° (E) 634 3.4 -18.5°
Enters shadow 09:14:55 10° 158° (SSE) 1,679 5.1 -18.0°
